Location: Berlin
(38.3226°N, 75.2177°W)
Time: 05:24:20
(UTC+00:00)

ADEOS - Pass Details

Date: 26 October 2020
Orbit: 793 x 794 km, 98.9° (Epoch: 26 November)

Event Time Altitude Azimuth Distance (km) Brightness Sun altitude
Rises 09:05:45 0° 19° (NNE) 3,302 7.1 -27.2°
Reaches altitude 10° 09:08:11 10° 25° (NNE) 2,368 6.4 -26.7°
Maximum altitude 09:13:14 48° 100° (E) 1,027 4.5 -25.7°
Drops below altitude 10° 09:18:14 10° 175° (S) 2,352 6.0 -24.7°
Sets 09:20:38 0° 180° (S) 3,278 6.7 -24.3°
